Погода в Корнуолле

Канада     45°01′18″N   74°42′57″W
темп.,
°C
ветер,
м/с
пор.,
м/с
влажн.,
%
обл.,
%
осадки,
мм/ч
давл.,
гПа
погр.,
м
29 июня, ср
ср2923:00+15ююз411680 0.0 1021321
02:00+12ююз39785 0.0 1021210
05:00+11ююз387678 0.0 1021154
08:00+16юз3770100 0.0 1022304
11:00+22зюз5754100 0.0 10211317
14:00+23з5861100 0.4 10201623
17:00+16зюз2994100 2.3 1021387
20:00+15юз289784 2.7 1021357
30 июня, чт
чт3023:00+13зюз249832 0.8 102283
02:00+12зюз229814 0.8 102333
05:00+11юз119861 0.0 102317
08:00+15юз129399 0.0 1024217
11:00+21зюз235911 0.0 1023983
14:00+24юз24438 0.0 10201579
17:00+24зюз3657100 0.0 10181036
20:00+18юз2271100 0.0 101818
1 июля, пт
пт123:00+16ююз2369100 0.0 101747
02:00+19ююз41465100 0.0 1015408
05:00+21юз41464100 0.0 1014559
08:00+21ююз51470100 0.0 1013570
11:00+27юз71256100 0.0 10121261
14:00+29юз7135096 0.0 10111866
17:00+27юз71457100 0.0 10101371
20:00+23юз41170100 0.2 1010533
2 июля, сб
сб223:00+19юз51397100 3.6 1010481
02:00+19юз51298100 8.4 1010513
05:00+18юз6139698 1.6 1010578
08:00+18зюз510863 1.6 1012720
11:00+21з69540 0.0 10131041
14:00+23зсз610490 0.0 10141866
17:00+24зсз255115 0.0 10131051
20:00+20юз396377 0.0 1013508
3 июля, вс
вс323:00+18з366865 0.0 1015163
02:00+12з22800 0.0 101820
05:00+10юз22850 0.0 102024
08:00+15з23665 0.0 1022238
11:00+19сз34533 0.0 1023967
14:00+22зсз46495 0.0 10221702
17:00+22зсз365199 0.0 10221361
20:00+18ююз2270100 0.0 102218